DW7371 Weather Reports


Display with metric or nautical units.
time (UTC)temp
F
wind
direction
speed
MPH
gust
MPH
rain 1hr
in
rain 24hr
in
rain mn
in
humidity
%
barometer
mb
20260509062738 50 112 0.0 1.0 0.00 0.00 0.00 84 1020.4
20260509061733 50 112 0.0 1.0 0.00 0.00 0.00 84 1020.4
20260509060703 51 112 0.0 1.0 0.00 0.00 0.00 83 1020.3
20260509053414 52 124 0.0 4.0 0.00 0.00 0.00 80 1020.3
20260509052425 53 118 1.0 4.0 0.00 0.00 0.00 79 1020.3
20260509051442 53 117 1.0 3.0 0.00 0.00 0.00 78 1020.2
20260509045249 54 117 0.0 2.0 0.00 0.00 0.00 76 1020.2
20260509044246 54 136 0.0 4.0 0.00 0.00 0.00 76 1020.1
20260509043254 54 175 1.0 4.0 0.00 0.00 0.00 76 1020.0
20260509042315 54 246 0.0 3.0 0.00 0.00 0.00 77 1020.1
20260509040159 54 118 0.0 3.0 0.00 0.00 0.00 75 1019.9
20260509034116 54 113 1.0 5.0 0.00 0.00 0.00 75 1019.8
20260509033054 54 178 2.0 6.0 0.00 0.00 0.00 74 1019.7
20260509032020 54 204 3.0 7.0 0.00 0.00 0.00 73 1019.6
20260509024715 54 205 5.0 12.0 0.00 0.00 0.00 73 1019.4
20260509023650 55 188 6.0 12.0 0.00 0.00 0.00 73 1019.4
20260509022624 55 192 5.0 9.0 0.00 0.00 0.00 72 1019.4
20260509021556 55 201 5.0 9.0 0.00 0.00 0.00 71 1019.4
20260509020614 55 198 5.0 13.0 0.00 0.00 0.00 71 1019.4
20260509015608 55 223 8.0 13.0 0.00 0.00 0.00 71 1019.4
20260509014544 55 215 9.0 13.0 0.00 0.00 0.00 70 1019.5
20260509013516 56 213 7.0 13.0 0.00 0.00 0.00 69 1019.3
20260509012535 56 172 6.0 13.0 0.00 0.00 0.00 69 1019.4
20260509011539 56 220 8.0 15.0 0.00 0.00 0.00 67 1019.4
20260509010546 56 211 8.0 15.0 0.00 0.00 0.00 68 1019.4
20260509005555 56 168 7.0 13.0 0.00 0.00 0.00 68 1019.3
20260509004612 56 190 6.0 10.0 0.00 0.00 0.00 69 1019.3
20260509003615 56 171 4.0 9.0 0.00 0.00 0.00 70 1019.3
20260509002628 56 149 6.0 11.0 0.00 0.00 0.00 70 1019.3
20260509001607 56 227 6.0 12.0 0.00 0.00 0.00 71 1019.4
20260509000541 56 211 6.0 12.0 0.00 0.00 0.00 73 1019.4
20260508235559 56 191 4.0 9.0 0.00 0.00 0.00 70 1019.4
20260508234541 57 166 5.0 10.0 0.00 0.00 0.00 68 1019.3
20260508233536 56 194 9.0 14.0 0.00 0.00 0.00 69 1019.3
20260508232502 57 211 8.0 13.0 0.00 0.00 0.00 70 1019.2
20260508231431 58 149 4.0 12.0 0.00 0.00 0.00 68 1019.1
20260508230411 57 194 6.0 14.0 0.00 0.00 0.00 70 1019.1
20260508225415 57 205 7.0 12.0 0.00 0.00 0.00 71 1019.0
20260508224412 56 199 8.0 16.0 0.00 0.00 0.00 68 1019.1
20260508223416 56 196 9.0 16.0 0.00 0.00 0.00 70 1019.1
20260508222429 57 218 8.0 14.0 0.00 0.00 0.00 69 1019.1
20260508221425 56 179 10.0 15.0 0.00 0.00 0.00 72 1019.1
20260508220354 56 189 10.0 15.0 0.00 0.00 0.00 70 1019.2
20260508215349 56 202 10.0 18.0 0.00 0.00 0.00 69 1019.1
20260508214355 57 209 10.0 18.0 0.00 0.00 0.00 69 1019.0
20260508213350 56 216 9.0 15.0 0.00 0.00 0.00 68 1019.0
20260508212349 56 240 9.0 15.0 0.00 0.00 0.00 67 1018.9
20260508211350 56 179 8.0 14.0 0.00 0.00 0.00 68 1018.9
20260508210332 56 194 8.0 15.0 0.00 0.00 0.00 67 1018.8
20260508205354 56 176 7.0 15.0 0.00 0.00 0.00 69 1018.7
20260508204403 56 192 9.0 15.0 0.00 0.00 0.00 70 1018.6
20260508203428 55 201 10.0 14.0 0.00 0.00 0.00 72 1018.6
20260508202440 56 196 10.0 14.0 0.00 0.00 0.00 69 1018.7
20260508195143 55 212 11.0 19.0 0.00 0.00 0.00 72 1018.3
20260508194128 55 184 11.0 17.0 0.00 0.00 0.00 73 1018.2
20260508192030 55 181 10.0 15.0 0.00 0.00 0.00 71 1017.9
20260508191048 55 202 9.0 14.0 0.00 0.00 0.00 72 1017.8
20260508190017 55 188 7.0 15.0 0.00 0.00 0.00 72 1017.9
20260508185013 55 213 9.0 15.0 0.00 0.00 0.00 72 1017.7
20260508182828 55 231 7.0 14.0 0.00 0.00 0.00 72 1017.5
20260508181809 55 182 8.0 14.0 0.00 0.00 0.00 73 1017.4
20260508180833 55 223 6.0 10.0 0.00 0.00 0.00 74 1017.3
20260508175833 54 217 5.0 9.0 0.00 0.00 0.00 74 1017.2
20260508174855 53 229 7.0 10.0 0.00 0.00 0.00 73 1017.1
20260508173904 54 246 7.0 13.0 0.00 0.00 0.00 75 1017.2
20260508172927 53 245 8.0 13.0 0.00 0.00 0.00 75 1017.1
20260508171917 53 246 9.0 16.0 0.00 0.00 0.00 75 1017.0
20260508170937 54 214 9.0 16.0 0.00 0.00 0.00 74 1016.8
20260508165922 53 247 9.0 15.0 0.00 0.00 0.00 74 1016.7
20260508163827 53 212 6.0 12.0 0.00 0.00 0.00 78 1016.2
20260508162824 53 205 7.0 13.0 0.00 0.00 0.00 78 1016.1
20260508161812 53 209 7.0 13.0 0.00 0.00 0.00 78 1016.1
20260508160813 53 221 6.0 12.0 0.00 0.00 0.00 79 1016.1
20260508155751 52 222 7.0 10.0 0.00 0.00 0.00 79 1015.9
20260508154726 52 215 5.0 8.0 0.00 0.00 0.00 80 1015.8
20260508153751 52 199 5.0 9.0 0.00 0.00 0.00 82 1015.8
20260508151647 52 234 4.0 9.0 0.00 0.00 0.00 82 1015.6
20260508150615 52 207 3.0 6.0 0.00 0.00 0.00 83 1015.6
20260508145640 52 259 4.0 11.0 0.00 0.00 0.00 83 1015.4
20260508144615 51 238 7.0 11.0 0.00 0.00 0.00 83 1015.5
20260508143625 51 240 5.0 9.0 0.00 0.00 0.00 86 1015.3
20260508142634 51 211 4.0 8.0 0.00 0.00 0.00 87 1015.1
20260508141606 50 164 2.0 5.0 0.00 0.00 0.00 89 1015.0
20260508140536 50 125 0.0 3.0 0.00 0.00 0.00 89 1014.9
20260508135601 50 118 0.0 2.0 0.00 0.00 0.00 90 1014.7
20260508133358 49 117 0.0 3.0 0.00 0.00 0.00 92 1014.5
20260508132418 49 119 1.0 3.0 0.00 0.00 0.00 92 1014.4
20260508131421 49 130 0.0 3.0 0.00 0.00 0.00 92 1014.4
20260508125246 48 173 0.0 4.0 0.00 0.00 0.00 93 1014.5
20260508121940 48 159 0.0 3.0 0.00 0.00 0.00 94 1014.3
20260508120952 48 143 0.0 3.0 0.00 0.00 0.00 93 1014.3
20260508115935 48 140 0.0 5.0 0.00 0.00 0.00 93 1014.3
20260508114926 48 157 1.0 5.0 0.00 0.00 0.00 93 1014.3
20260508113947 48 168 0.0 3.0 0.00 0.00 0.00 93 1014.3
20260508112943 48 151 0.0 3.0 0.00 0.00 0.00 93 1014.2
20260508111948 48 170 0.0 2.0 0.00 0.00 0.00 93 1014.0
20260508104641 48 112 0.0 3.0 0.00 0.00 0.00 94 1014.0
20260508102428 49 112 0.0 2.0 0.00 0.00 0.00 94 1013.9
20260508101445 48 128 0.0 2.0 0.00 0.00 0.00 94 1013.9
20260508095326 48 190 0.0 4.0 0.00 0.00 0.00 94 1014.0
20260508094302 49 151 1.0 3.0 0.00 0.00 0.00 93 1013.8
20260508093313 49 189 0.0 3.0 0.00 0.00 0.00 94 1013.8
20260508092313 48 150 0.0 3.0 0.00 0.00 0.00 94 1013.8
20260508091333 48 155 0.0 3.0 0.00 0.00 0.00 94 1013.9
20260508090320 48 175 0.0 2.0 0.00 0.00 0.00 93 1013.9
20260508085307 48 117 0.0 0.0 0.00 0.00 0.00 93 1013.8
20260508083144 48 128 0.0 0.0 0.00 0.00 0.00 93 1013.9
20260508082129 48 170 0.0 2.0 0.00 0.00 0.00 93 1013.9
20260508080053 49 55 0.0 0.0 0.00 0.00 0.00 92 1013.8
20260508075106 49 143 0.0 3.0 0.00 0.00 0.00 92 1014.1
20260508074127 49 163 0.0 3.0 0.00 0.00 0.00 93 1014.1
20260508073128 48 177 0.0 0.0 0.00 0.00 0.00 93 1014.2
20260508072107 48 189 0.0 1.0 0.00 0.00 0.00 92 1014.2
20260508064736 49 126 0.0 0.0 0.00 0.00 0.00 91 1014.2
20260508063753 49 110 0.0 0.0 0.00 0.00 0.00 91 1014.3